Weather Service Report


526 
ASUS45 KBOI 061410
RWRID 
WEATHER ROUNDUP FOR IDAHO
NATIONAL WEATHER SERVICE BOISE ID
700 AM MST FRI MAR 06 2015

NOTE: "FAIR" INDICATES FEW OR NO CLOUDS BELOW 12000 FEET
WITH NO SIGNIFICANT WEATHER AND/OR OBSTRUCTIONS TO VISIBILITY

IDZ012-014-061500-
SOUTHWEST IDAHO

  
CITY           SKY/WX    TMP DP  RH WIND       PRES   REMARKS
BOISE          CLEAR     32  19  58 S5        30.42R WCI  27          
CALDWELL       CLEAR     25  14  63 CALM      30.45R                  
MOUNTAIN HOME  CLEAR     23  16  75 E5        30.42R WCI  16          
$$

IDZ016-017-061500-
SOUTHCENTRAL IDAHO

  
CITY           SKY/WX    TMP DP  RH WIND       PRES   REMARKS
BURLEY         CLEAR     25  15  66 CALM      30.39R                  
JEROME         CLEAR     29  17  61 E7        30.40R WCI  22          
TWIN FALLS     CLEAR     33  16  49 S12       30.40R WCI  24          
$$

IDZ019>023-061500-
SOUTHEAST IDAHO

  
CITY           SKY/WX    TMP DP  RH WIND       PRES   REMARKS
IDAHO FALLS    PTCLDY    21  17  84 CALM      30.41S                  
POCATELLO      CLEAR     22  19  89 NE6       30.42R WCI  14          
REXBURG        PTCLDY    18  15  88 NE5       30.41R WCI  11          
$$

IDZ006-010-011-018-031-032-061500-
CENTRAL IDAHO MOUNTAINS

  
CITY           SKY/WX    TMP DP  RH WIND       PRES   REMARKS
MCCALL         CLEAR     19  14  81 CALM      30.40R                  
HAILEY         CLEAR     27  14  59 W9        30.40R WCI  17          
STANLEY          N/A      8   2  76 CALM      30.46R                  
SALMON         CLEAR     18  12  79 E3        30.44R                  
CHALLIS        CLEAR     21  12  68 CALM      30.42R                  
$$

IDZ002-004-006-007-026-061500-
NORTHERN IDAHO

  
CITY           SKY/WX    TMP DP  RH WIND       PRES   REMARKS
LEWISTON       PTCLDY    30  24  78 CALM      30.41S                  
LOWELL           N/A     27  23  85 VRB3      30.52R                  
COEUR D'ALENE  CLEAR     30  23  74 S7        30.36R WCI  23          
MULLAN PASS    CLEAR     29  15  56 SW8       30.30S WCI  21          
$$

Return to Home page


Western Regional Climate Center, wrcc@dri.edu